,,,PA_Meas_PMT16A,,PR_Meas_QMR101_102,,RH_Meas_QMH101,,SR_Meas_QMS101,,TA_Meas_QMH101,,GenWind,,GenWind,
date,time,status,PA,status,PR,status,RH,status,SR,status,TA,status,DirAvg,status,SpdAvg,
2014-06-06, 00:00:04,VALID,1007.7,VALID,0,VALID,104,VALID,0,VALID,23.7914,VALID,182,VALID,0,
2014-06-06, 00:01:04,VALID,1007.71,VALID,0,VALID,104,VALID,0,VALID,23.772,VALID,182,VALID,0,
2014-06-06, 00:02:04,VALID,1007.65,VALID,0,VALID,104,VALID,0,VALID,23.7525,VALID,182,VALID,0,
2014-06-06, 00:03:04,VALID,1007.65,VALID,0,VALID,104,VALID,0,VALID,23.7525,VALID,182,VALID,0,
2014-06-06, 00:04:04,VALID,1007.64,VALID,0,VALID,104,VALID,0,VALID,23.733,VALID,182,VALID,0,
2014-06-06, 00:05:04,VALID,1007.62,VALID,0,VALID,104,VALID,0,VALID,23.7348,VALID,182,VALID,0,
2014-06-06, 00:06:04,VALID,1007.63,VALID,0,VALID,104,VALID,0,VALID,23.7135,VALID,182,VALID,0,
2014-06-06, 00:07:04,VALID,1007.63,VALID,0,VALID,104,VALID,0,VALID,23.694,VALID,182,VALID,0,
2014-06-06, 00:08:04,VALID,1007.65,VALID,0,VALID,104,VALID,0,VALID,23.694,VALID,182,VALID,0,
2014-06-06, 00:09:04,VALID,1007.63,VALID,0,VALID,104,VALID,0.112112,VALID,23.6727,VALID,182,VALID,0,
2014-06-06, 00:10:04,VALID,1007.63,VALID,0,VALID,104,VALID,0,VALID,23.694,VALID,182,VALID,0,
2014-06-06, 00:11:04,VALID,1007.62,VALID,0,VALID,104,VALID,0.112112,VALID,23.6745,VALID,182,VALID,0,
2014-06-06, 00:12:04,VALID,1007.61,VALID,0,VALID,104,VALID,0,VALID,23.655,VALID,182,VALID,0,
2014-06-06, 00:13:04,VALID,1007.62,VALID,0,VALID,104,VALID,0,VALID,23.6356,VALID,182,VALID,0,
2014-06-06, 00:14:04,VALID,1007.61,VALID,0,VALID,104,VALID,0,VALID,23.6356,VALID,182,VALID,0.603125,
2014-06-06, 00:15:04,VALID,1007.61,VALID,0,VALID,104,VALID,0,VALID,23.6373,VALID,168,VALID,0,
2014-06-06, 00:16:04,VALID,1007.6,VALID,0,VALID,104,VALID,0,VALID,23.6161,VALID,135,VALID,0,
2014-06-06, 00:17:04,VALID,1007.58,VALID,0,VALID,104,VALID,0,VALID,23.6161,VALID,135,VALID,0,
2014-06-06, 00:18:04,VALID,1007.58,VALID,0,VALID,104,VALID,0,VALID,23.5966,VALID,135,VALID,0,
2014-06-06, 00:19:04,VALID,1007.56,VALID,0,VALID,104,VALID,0,VALID,23.5771,VALID,135,VALID,0,
2014-06-06, 00:20:04,VALID,1007.56,VALID,0,VALID,104,VALID,0,VALID,23.5576,VALID,135,VALID,0,
2014-06-06, 00:21:04,VALID,1007.57,VALID,0,VALID,104,VALID,0,VALID,23.5771,VALID,135,VALID,0,
2014-06-06, 00:22:04,VALID,1007.53,VALID,0,VALID,104,VALID,0,VALID,23.5771,VALID,135,VALID,0,
2014-06-06, 00:23:04,VALID,1007.47,VALID,0,VALID,104,VALID,0,VALID,23.5576,VALID,135,VALID,0,
2014-06-06, 00:24:04,VALID,1007.47,VALID,0,VALID,104,VALID,0,VALID,23.5771,VALID,135,VALID,0,
2014-06-06, 00:25:04,VALID,1007.46,VALID,0,VALID,104,VALID,0,VALID,23.5381,VALID,135,VALID,0,
2014-06-06, 00:26:04,VALID,1007.44,VALID,0,VALID,104,VALID,0,VALID,23.5381,VALID,135,VALID,0,
2014-06-06, 00:27:04,VALID,1007.42,VALID,0,VALID,104,VALID,0.112112,VALID,23.5381,VALID,135,VALID,0,
2014-06-06, 00:28:04,VALID,1007.44,VALID,0,VALID,104,VALID,0,VALID,23.5186,VALID,135,VALID,0,
2014-06-06, 00:29:04,VALID,1007.4,VALID,0,VALID,104,VALID,0,VALID,23.4992,VALID,135,VALID,0,
2014-06-06, 00:30:04,VALID,1007.39,VALID,0,VALID,104,VALID,0,VALID,23.5204,VALID,135,VALID,0,
2014-06-06, 00:31:04,VALID,1007.36,VALID,0,VALID,104,VALID,0,VALID,23.4602,VALID,135,VALID,0,
2014-06-06, 00:32:04,VALID,1007.36,VALID,0,VALID,104,VALID,0,VALID,23.4815,VALID,135,VALID,0,
2014-06-06, 00:33:04,VALID,1007.35,VALID,0,VALID,104,VALID,0,VALID,23.4602,VALID,135,VALID,0,
2014-06-06, 00:34:04,VALID,1007.33,VALID,0,VALID,104,VALID,0,VALID,23.4815,VALID,135,VALID,0,
2014-06-06, 00:35:04,VALID,1007.33,VALID,0,VALID,104,VALID,0,VALID,23.4602,VALID,135,VALID,0,
2014-06-06, 00:36:04,VALID,1007.34,VALID,0,VALID,104,VALID,0,VALID,23.4194,VALID,135,VALID,0,
2014-06-06, 00:37:04,VALID,1007.34,VALID,0,VALID,104,VALID,0,VALID,23.4407,VALID,135,VALID,0,
2014-06-06, 00:38:04,VALID,1007.28,VALID,0,VALID,104,VALID,0,VALID,23.4407,VALID,135,VALID,0,
2014-06-06, 00:39:04,VALID,1007.27,VALID,0,VALID,104,VALID,0,VALID,23.4407,VALID,135,VALID,0,
2014-06-06, 00:40:04,VALID,1007.28,VALID,0,VALID,104,VALID,0.112112,VALID,23.4407,VALID,135,VALID,0,
2014-06-06, 00:41:04,VALID,1007.25,VALID,0,VALID,104,VALID,0,VALID,23.4407,VALID,135,VALID,0,
2014-06-06, 00:42:04,VALID,1007.23,VALID,0,VALID,104,VALID,0,VALID,23.4407,VALID,135,VALID,0,
2014-06-06, 00:43:04,VALID,1007.23,VALID,0,VALID,104,VALID,0,VALID,23.4425,VALID,135,VALID,0,
2014-06-06, 00:44:04,VALID,1007.16,VALID,0,VALID,104,VALID,0,VALID,23.4407,VALID,135,VALID,0,
2014-06-06, 00:45:04,VALID,1007.14,VALID,0,VALID,104,VALID,0,VALID,23.4017,VALID,135,VALID,0,
2014-06-06, 00:46:04,VALID,1007.08,VALID,0,VALID,104,VALID,0,VALID,23.4017,VALID,135,VALID,0,
2014-06-06, 00:47:04,VALID,1007.03,VALID,0,VALID,104,VALID,0,VALID,23.4017,VALID,135,VALID,0,
2014-06-06, 00:48:04,VALID,1007.01,VALID,0,VALID,104,VALID,0,VALID,23.4212,VALID,135,VALID,0,
2014-06-06, 00:49:04,VALID,1007,VALID,0,VALID,104,VALID,0,VALID,23.4212,VALID,135,VALID,0,
2014-06-06, 00:50:04,VALID,1006.96,VALID,0,VALID,104,VALID,0,VALID,23.4407,VALID,135,VALID,0,
2014-06-06, 00:51:04,VALID,1006.93,VALID,0,VALID,104,VALID,0,VALID,23.4602,VALID,135,VALID,0,
2014-06-06, 00:52:04,VALID,1006.93,VALID,0,VALID,104,VALID,0,VALID,23.4407,VALID,135,VALID,0,
2014-06-06, 00:53:04,VALID,1006.95,VALID,0,VALID,104,VALID,0,VALID,23.4407,VALID,135,VALID,0,
2014-06-06, 00:54:04,VALID,1006.91,VALID,0,VALID,104,VALID,0,VALID,23.4212,VALID,135,VALID,0,
2014-06-06, 00:55:04,VALID,1006.9,VALID,0,VALID,104,VALID,0,VALID,23.4425,VALID,135,VALID,0,
2014-06-06, 00:56:04,VALID,1006.87,VALID,0,VALID,104,VALID,0,VALID,23.4017,VALID,135,VALID,0,
2014-06-06, 00:57:04,VALID,1006.85,VALID,0,VALID,104,VALID,0,VALID,23.4017,VALID,135,VALID,0,
2014-06-06, 00:58:04,VALID,1006.81,VALID,0,VALID,104,VALID,0,VALID,23.3823,VALID,135,VALID,0,
2014-06-06, 00:59:04,VALID,1006.79,VALID,0,VALID,104,VALID,0,VALID,23.4017,VALID,135,VALID,0,
2014-06-06, 01:00:04,VALID,1006.78,VALID,0,VALID,104,VALID,0,VALID,23.3823,VALID,135,VALID,0,
2014-06-06, 01:01:04,VALID,1006.78,VALID,0,VALID,104,VALID,0,VALID,23.3628,VALID,135,VALID,0,
2014-06-06, 01:02:04,VALID,1006.75,VALID,0,VALID,104,VALID,0,VALID,23.3628,VALID,135,VALID,0,
2014-06-06, 01:03:04,VALID,1006.74,VALID,0,VALID,104,VALID,0,VALID,23.3433,VALID,135,VALID,0,
2014-06-06, 01:04:04,VALID,1006.76,VALID,0,VALID,104,VALID,0,VALID,23.3433,VALID,135,VALID,0,
2014-06-06, 01:05:04,VALID,1006.73,VALID,0,VALID,104,VALID,0,VALID,23.3433,VALID,135,VALID,0,
2014-06-06, 01:06:04,VALID,1006.73,VALID,0,VALID,104,VALID,0,VALID,23.3433,VALID,135,VALID,0,
2014-06-06, 01:07:04,VALID,1006.73,VALID,0,VALID,104,VALID,0,VALID,23.3433,VALID,135,VALID,0,
2014-06-06, 01:08:04,VALID,1006.72,VALID,0,VALID,104,VALID,0,VALID,23.3645,VALID,135,VALID,0,
2014-06-06, 01:09:04,VALID,1006.68,VALID,0,VALID,104,VALID,0,VALID,23.384,VALID,135,VALID,0,
2014-06-06, 01:10:04,VALID,1006.72,VALID,0,VALID,104,VALID,0,VALID,23.3433,VALID,135,VALID,0,
2014-06-06, 01:11:04,VALID,1006.68,VALID,0,VALID,104,VALID,0.112112,VALID,23.3238,VALID,135,VALID,0,
2014-06-06, 01:12:04,VALID,1006.69,VALID,0,VALID,104,VALID,0,VALID,23.3433,VALID,135,VALID,0,
2014-06-06, 01:13:04,VALID,1006.69,VALID,0,VALID,104,VALID,0,VALID,23.3238,VALID,135,VALID,0,
2014-06-06, 01:14:04,VALID,1006.68,VALID,0,VALID,104,VALID,0,VALID,23.3238,VALID,135,VALID,0,
2014-06-06, 01:15:04,VALID,1006.68,VALID,0,VALID,104,VALID,0,VALID,23.3256,VALID,135,VALID,0,
2014-06-06, 01:16:04,VALID,1006.65,VALID,0,VALID,104,VALID,0,VALID,23.3043,VALID,135,VALID,0,
2014-06-06, 01:17:04,VALID,1006.65,VALID,0,VALID,104,VALID,0,VALID,23.2848,VALID,135,VALID,0,
2014-06-06, 01:18:04,VALID,1006.64,VALID,0,VALID,104,VALID,0,VALID,23.3043,VALID,135,VALID,0,
2014-06-06, 01:19:04,VALID,1006.63,VALID,0,VALID,104,VALID,0,VALID,23.2848,VALID,135,VALID,0,
2014-06-06, 01:20:04,VALID,1006.64,VALID,0,VALID,104,VALID,0,VALID,23.3043,VALID,135,VALID,0,
2014-06-06, 01:21:04,VALID,1006.67,VALID,0,VALID,104,VALID,0,VALID,23.2848,VALID,135,VALID,0,
2014-06-06, 01:22:04,VALID,1006.67,VALID,0,VALID,104,VALID,0,VALID,23.2654,VALID,135,VALID,0,
2014-06-06, 01:23:04,VALID,1006.66,VALID,0,VALID,104,VALID,0,VALID,23.2654,VALID,135,VALID,0,
2014-06-06, 01:24:04,VALID,1006.68,VALID,0,VALID,104,VALID,0,VALID,23.2459,VALID,135,VALID,0,
2014-06-06, 01:25:04,VALID,1006.7,VALID,0,VALID,104,VALID,0,VALID,23.2264,VALID,135,VALID,0,
2014-06-06, 01:26:04,VALID,1006.68,VALID,0,VALID,104,VALID,0,VALID,23.2069,VALID,135,VALID,0,
2014-06-06, 01:27:04,VALID,1006.68,VALID,0,VALID,104,VALID,0,VALID,23.2069,VALID,135,VALID,0,
2014-06-06, 01:28:04,VALID,1006.68,VALID,0,VALID,104,VALID,0,VALID,23.2282,VALID,135,VALID,0,
2014-06-06, 01:29:04,VALID,1006.69,VALID,0,VALID,104,VALID,0,VALID,23.2069,VALID,135,VALID,0,
2014-06-06, 01:30:04,VALID,1006.69,VALID,0,VALID,104,VALID,0,VALID,23.2069,VALID,135,VALID,0,
2014-06-06, 01:31:04,VALID,1006.7,VALID,0,VALID,104,VALID,0,VALID,23.2069,VALID,135,VALID,0,
2014-06-06, 01:32:04,VALID,1006.7,VALID,0,VALID,104,VALID,0,VALID,23.2282,VALID,135,VALID,0,
2014-06-06, 01:33:04,VALID,1006.69,VALID,0,VALID,104,VALID,0,VALID,23.2282,VALID,135,VALID,0,
2014-06-06, 01:34:04,VALID,1006.68,VALID,0,VALID,104,VALID,0,VALID,23.2476,VALID,135,VALID,0,
2014-06-06, 01:35:04,VALID,1006.69,VALID,0,VALID,104,VALID,0,VALID,23.2282,VALID,135,VALID,0,
2014-06-06, 01:36:04,VALID,1006.69,VALID,0,VALID,104,VALID,0,VALID,23.2476,VALID,135,VALID,0,
2014-06-06, 01:37:04,VALID,1006.67,VALID,0,VALID,104,VALID,0,VALID,23.2476,VALID,135,VALID,0,
2014-06-06, 01:38:04,VALID,1006.71,VALID,0,VALID,104,VALID,0,VALID,23.2264,VALID,135,VALID,0,
2014-06-06, 01:39:04,VALID,1006.72,VALID,0,VALID,104,VALID,0,VALID,23.2264,VALID,135,VALID,0,
2014-06-06, 01:40:04,VALID,1006.73,VALID,0,VALID,104,VALID,0.112112,VALID,23.2459,VALID,135,VALID,0,
2014-06-06, 01:41:04,VALID,1006.7,VALID,0,VALID,104,VALID,0,VALID,23.2654,VALID,135,VALID,0,
2014-06-06, 01:42:04,VALID,1006.71,VALID,0,VALID,104,VALID,0.112112,VALID,23.2848,VALID,135,VALID,0,
2014-06-06, 01:43:04,VALID,1006.72,VALID,0,VALID,104,VALID,0,VALID,23.3043,VALID,135,VALID,0,
2014-06-06, 01:44:04,VALID,1006.71,VALID,0,VALID,104,VALID,0.112112,VALID,23.3238,VALID,135,VALID,0,
2014-06-06, 01:45:04,VALID,1006.69,VALID,0,VALID,104,VALID,0,VALID,23.3026,VALID,135,VALID,0,
2014-06-06, 01:46:04,VALID,1006.69,VALID,0,VALID,104,VALID,0.112112,VALID,23.3433,VALID,135,VALID,0,
2014-06-06, 01:47:04,VALID,1006.72,VALID,0,VALID,104,VALID,0,VALID,23.3433,VALID,135,VALID,0,
2014-06-06, 01:48:04,VALID,1006.7,VALID,0,VALID,104,VALID,0.112112,VALID,23.361,VALID,135,VALID,0,
2014-06-06, 01:49:04,VALID,1006.7,VALID,0,VALID,104,VALID,0,VALID,23.384,VALID,135,VALID,0,
2014-06-06, 01:50:04,VALID,1006.73,VALID,0,VALID,104,VALID,0,VALID,23.3823,VALID,135,VALID,0,
2014-06-06, 01:51:04,VALID,1006.75,VALID,0,VALID,104,VALID,0,VALID,23.3823,VALID,135,VALID,0,
2014-06-06, 01:52:04,VALID,1006.74,VALID,0,VALID,104,VALID,0,VALID,23.3628,VALID,135,VALID,0,
2014-06-06, 01:53:04,VALID,1006.74,VALID,0,VALID,104,VALID,0,VALID,23.3628,VALID,135,VALID,0,
2014-06-06, 01:54:04,VALID,1006.76,VALID,0,VALID,104,VALID,0,VALID,23.3628,VALID,135,VALID,0,
2014-06-06, 01:55:04,VALID,1006.76,VALID,0,VALID,104,VALID,0,VALID,23.3415,VALID,135,VALID,0,
2014-06-06, 01:56:04,VALID,1006.78,VALID,0,VALID,104,VALID,0,VALID,23.4017,VALID,135,VALID,0,
2014-06-06, 01:57:04,VALID,1006.8,VALID,0,VALID,104,VALID,0,VALID,23.4425,VALID,135,VALID,0,
2014-06-06, 01:58:04,VALID,1006.8,VALID,0,VALID,104,VALID,0,VALID,23.4212,VALID,135,VALID,0,
2014-06-06, 01:59:04,VALID,1006.8,VALID,0,VALID,104,VALID,0,VALID,23.4212,VALID,135,VALID,0,
2014-06-06, 02:00:04,VALID,1006.82,VALID,0,VALID,104,VALID,0,VALID,23.4212,VALID,135,VALID,0,
2014-06-06, 02:01:04,VALID,1006.79,VALID,0,VALID,104,VALID,0,VALID,23.4407,VALID,135,VALID,0,
2014-06-06, 02:02:04,VALID,1006.81,VALID,0,VALID,104,VALID,0,VALID,23.4212,VALID,135,VALID,0,
2014-06-06, 02:03:04,VALID,1006.78,VALID,0,VALID,104,VALID,0,VALID,23.4602,VALID,135,VALID,0,
2014-06-06, 02:04:04,VALID,1006.76,VALID,0,VALID,104,VALID,0,VALID,23.4602,VALID,135,VALID,0,
2014-06-06, 02:05:04,VALID,1006.72,VALID,0,VALID,104,VALID,0,VALID,23.4389,VALID,135,VALID,0,
2014-06-06, 02:06:04,VALID,1006.74,VALID,0,VALID,104,VALID,0.112112,VALID,23.4407,VALID,135,VALID,0,
2014-06-06, 02:07:04,VALID,1006.74,VALID,0,VALID,104,VALID,0,VALID,23.462,VALID,135,VALID,0,
2014-06-06, 02:08:04,VALID,1006.72,VALID,0,VALID,104,VALID,0,VALID,23.4407,VALID,135,VALID,0,
2014-06-06, 02:09:04,VALID,1006.73,VALID,0,VALID,104,VALID,0,VALID,23.4797,VALID,135,VALID,0,
2014-06-06, 02:10:04,VALID,1006.74,VALID,0,VALID,104,VALID,0,VALID,23.4602,VALID,135,VALID,0,
2014-06-06, 02:11:04,VALID,1006.72,VALID,0,VALID,104,VALID,0,VALID,23.4797,VALID,135,VALID,0,
2014-06-06, 02:12:04,VALID,1006.75,VALID,0,VALID,104,VALID,0,VALID,23.4797,VALID,135,VALID,0,
2014-06-06, 02:13:04,VALID,1006.75,VALID,0,VALID,104,VALID,0,VALID,23.4797,VALID,135,VALID,0,
2014-06-06, 02:14:04,VALID,1006.72,VALID,0,VALID,104,VALID,0,VALID,23.4797,VALID,135,VALID,0,
2014-06-06, 02:15:04,VALID,1006.73,VALID,0,VALID,104,VALID,0,VALID,23.4797,VALID,135,VALID,0,
2014-06-06, 02:16:04,VALID,1006.7,VALID,0,VALID,104,VALID,0.112112,VALID,23.4992,VALID,135,VALID,0,
2014-06-06, 02:17:04,VALID,1006.71,VALID,0,VALID,104,VALID,0,VALID,23.4992,VALID,135,VALID,0,
2014-06-06, 02:18:04,VALID,1006.7,VALID,0,VALID,104,VALID,0,VALID,23.4797,VALID,135,VALID,0,
2014-06-06, 02:19:04,VALID,1006.67,VALID,0,VALID,104,VALID,0,VALID,23.4407,VALID,135,VALID,0,
2014-06-06, 02:20:04,VALID,1006.65,VALID,0,VALID,104,VALID,0.112112,VALID,23.4815,VALID,135,VALID,0,
2014-06-06, 02:21:04,VALID,1006.67,VALID,0,VALID,104,VALID,0,VALID,23.4602,VALID,135,VALID,0,
2014-06-06, 02:22:04,VALID,1006.66,VALID,0,VALID,104,VALID,0,VALID,23.4797,VALID,135,VALID,0,
2014-06-06, 02:23:04,VALID,1006.63,VALID,0,VALID,104,VALID,0,VALID,23.4797,VALID,135,VALID,0,
2014-06-06, 02:24:04,VALID,1006.63,VALID,0,VALID,104,VALID,0,VALID,23.4797,VALID,135,VALID,0,
2014-06-06, 02:25:04,VALID,1006.61,VALID,0,VALID,104,VALID,0,VALID,23.4797,VALID,135,VALID,0,
2014-06-06, 02:26:04,VALID,1006.58,VALID,0,VALID,104,VALID,0,VALID,23.4797,VALID,135,VALID,0,
2014-06-06, 02:27:04,VALID,1006.58,VALID,0,VALID,104,VALID,0,VALID,23.5009,VALID,135,VALID,0,
2014-06-06, 02:28:04,VALID,1006.55,VALID,0,VALID,104,VALID,0,VALID,23.4602,VALID,135,VALID,0,
2014-06-06, 02:29:04,VALID,1006.57,VALID,0,VALID,104,VALID,0,VALID,23.4602,VALID,135,VALID,0,
2014-06-06, 02:30:04,VALID,1006.55,VALID,0,VALID,104,VALID,0,VALID,23.4602,VALID,135,VALID,0,
2014-06-06, 02:31:04,VALID,1006.56,VALID,0,VALID,104,VALID,0,VALID,23.4602,VALID,135,VALID,0,
2014-06-06, 02:32:04,VALID,1006.58,VALID,0,VALID,104,VALID,0,VALID,23.4602,VALID,135,VALID,0,
2014-06-06, 02:33:04,VALID,1006.58,VALID,0,VALID,104,VALID,0,VALID,23.4602,VALID,135,VALID,0,
2014-06-06, 02:34:04,VALID,1006.6,VALID,0,VALID,104,VALID,0,VALID,23.4407,VALID,135,VALID,0,
2014-06-06, 02:35:04,VALID,1006.6,VALID,0,VALID,104,VALID,0,VALID,23.4407,VALID,135,VALID,0,
2014-06-06, 02:36:04,VALID,1006.61,VALID,0,VALID,104,VALID,0,VALID,23.4212,VALID,135,VALID,0,
2014-06-06, 02:37:04,VALID,1006.6,VALID,0,VALID,104,VALID,0,VALID,23.4407,VALID,135,VALID,0,
2014-06-06, 02:38:04,VALID,1006.61,VALID,0,VALID,104,VALID,0,VALID,23.4407,VALID,135,VALID,0,
2014-06-06, 02:39:04,VALID,1006.6,VALID,0,VALID,104,VALID,0,VALID,23.4602,VALID,135,VALID,0,
2014-06-06, 02:40:04,VALID,1006.58,VALID,0,VALID,104,VALID,0,VALID,23.4407,VALID,135,VALID,0,
2014-06-06, 02:41:04,VALID,1006.55,VALID,0,VALID,104,VALID,0,VALID,23.4602,VALID,135,VALID,0,
2014-06-06, 02:42:04,VALID,1006.52,VALID,0,VALID,104,VALID,0,VALID,23.4602,VALID,135,VALID,0,
2014-06-06, 02:43:04,VALID,1006.51,VALID,0,VALID,104,VALID,0,VALID,23.4407,VALID,135,VALID,0,
2014-06-06, 02:44:04,VALID,1006.49,VALID,0,VALID,104,VALID,0,VALID,23.4407,VALID,135,VALID,0,
2014-06-06, 02:45:04,VALID,1006.46,VALID,0,VALID,104,VALID,0,VALID,23.4212,VALID,135,VALID,0,
2014-06-06, 02:46:04,VALID,1006.46,VALID,0,VALID,104,VALID,0,VALID,23.4212,VALID,135,VALID,0,
2014-06-06, 02:47:04,VALID,1006.44,VALID,0,VALID,104,VALID,0,VALID,23.4212,VALID,135,VALID,0,
2014-06-06, 02:48:04,VALID,1006.43,VALID,0,VALID,104,VALID,0,VALID,23.4,VALID,135,VALID,0,
2014-06-06, 02:49:04,VALID,1006.41,VALID,0,VALID,104,VALID,0,VALID,23.4017,VALID,135,VALID,0,
2014-06-06, 02:50:04,VALID,1006.42,VALID,0,VALID,104,VALID,0,VALID,23.4212,VALID,135,VALID,0,
2014-06-06, 02:51:04,VALID,1006.43,VALID,0,VALID,104,VALID,0,VALID,23.4017,VALID,135,VALID,0,
2014-06-06, 02:52:04,VALID,1006.46,VALID,0,VALID,104,VALID,0,VALID,23.4212,VALID,135,VALID,0,
2014-06-06, 02:53:04,VALID,1006.43,VALID,0,VALID,104,VALID,0,VALID,23.4212,VALID,135,VALID,0,
2014-06-06, 02:54:04,VALID,1006.45,VALID,0,VALID,104,VALID,0,VALID,23.4212,VALID,135,VALID,0,
2014-06-06, 02:55:04,VALID,1006.45,VALID,0,VALID,104,VALID,0,VALID,23.4212,VALID,135,VALID,0,
2014-06-06, 02:56:04,VALID,1006.45,VALID,0,VALID,104,VALID,0,VALID,23.4212,VALID,135,VALID,0,
2014-06-06, 02:57:04,VALID,1006.4,VALID,0,VALID,104,VALID,0,VALID,23.4425,VALID,135,VALID,0,
2014-06-06, 02:58:04,VALID,1006.44,VALID,0,VALID,104,VALID,0,VALID,23.4212,VALID,135,VALID,0,
2014-06-06, 02:59:04,VALID,1006.44,VALID,0,VALID,104,VALID,0,VALID,23.4212,VALID,135,VALID,0,
2014-06-06, 03:00:04,VALID,1006.41,VALID,0,VALID,104,VALID,0,VALID,23.4212,VALID,135,VALID,0,
2014-06-06, 03:01:04,VALID,1006.39,VALID,0,VALID,104,VALID,0,VALID,23.423,VALID,135,VALID,0,
2014-06-06, 03:02:04,VALID,1006.41,VALID,0,VALID,104,VALID,0,VALID,23.4212,VALID,135,VALID,0,
2014-06-06, 03:03:04,VALID,1006.4,VALID,0,VALID,104,VALID,0,VALID,23.4212,VALID,135,VALID,0,
2014-06-06, 03:04:04,VALID,1006.39,VALID,0,VALID,104,VALID,0,VALID,23.4407,VALID,135,VALID,0,
2014-06-06, 03:05:04,VALID,1006.39,VALID,0,VALID,104,VALID,0,VALID,23.4212,VALID,135,VALID,0,
2014-06-06, 03:06:04,VALID,1006.38,VALID,0,VALID,104,VALID,0,VALID,23.4212,VALID,135,VALID,0,
2014-06-06, 03:07:04,VALID,1006.38,VALID,0,VALID,104,VALID,0,VALID,23.4212,VALID,135,VALID,0,
2014-06-06, 03:08:04,VALID,1006.34,VALID,0,VALID,104,VALID,0,VALID,23.4212,VALID,135,VALID,0,
2014-06-06, 03:09:04,VALID,1006.35,VALID,0,VALID,104,VALID,0,VALID,23.4407,VALID,135,VALID,0,
2014-06-06, 03:10:04,VALID,1006.34,VALID,0,VALID,104,VALID,0,VALID,23.4407,VALID,135,VALID,0,
2014-06-06, 03:11:04,VALID,1006.33,VALID,0,VALID,104,VALID,0,VALID,23.462,VALID,135,VALID,0,
2014-06-06, 03:12:04,VALID,1006.35,VALID,0,VALID,104,VALID,0,VALID,23.4407,VALID,135,VALID,0,
2014-06-06, 03:13:04,VALID,1006.36,VALID,0,VALID,104,VALID,0,VALID,23.4407,VALID,135,VALID,0,
2014-06-06, 03:14:04,VALID,1006.37,VALID,0,VALID,104,VALID,0,VALID,23.4602,VALID,135,VALID,0,
2014-06-06, 03:15:04,VALID,1006.36,VALID,0,VALID,104,VALID,0,VALID,23.4602,VALID,135,VALID,0,
2014-06-06, 03:16:04,VALID,1006.37,VALID,0,VALID,104,VALID,0,VALID,23.4407,VALID,135,VALID,0,
2014-06-06, 03:17:04,VALID,1006.36,VALID,0,VALID,104,VALID,0,VALID,23.4797,VALID,135,VALID,0,
2014-06-06, 03:18:04,VALID,1006.32,VALID,0,VALID,104,VALID,0,VALID,23.4992,VALID,135,VALID,0,
2014-06-06, 03:19:04,VALID,1006.34,VALID,0,VALID,104,VALID,0,VALID,23.5399,VALID,135,VALID,0,
2014-06-06, 03:20:04,VALID,1006.32,VALID,0,VALID,104,VALID,0,VALID,23.5381,VALID,135,VALID,0,
2014-06-06, 03:21:04,VALID,1006.26,VALID,0,VALID,104,VALID,0,VALID,23.5576,VALID,135,VALID,0,
2014-06-06, 03:22:04,VALID,1006.25,VALID,0,VALID,104,VALID,0,VALID,23.5576,VALID,135,VALID,0,
2014-06-06, 03:23:04,VALID,1006.24,VALID,0,VALID,104,VALID,0,VALID,23.5594,VALID,135,VALID,0,
2014-06-06, 03:24:04,VALID,1006.23,VALID,0,VALID,104,VALID,0,VALID,23.5576,VALID,135,VALID,0,
2014-06-06, 03:25:04,VALID,1006.2,VALID,0,VALID,104,VALID,0,VALID,23.5576,VALID,135,VALID,0,
2014-06-06, 03:26:04,VALID,1006.22,VALID,0,VALID,104,VALID,0,VALID,23.5576,VALID,135,VALID,0,
2014-06-06, 03:27:04,VALID,1006.2,VALID,0,VALID,104,VALID,0,VALID,23.5771,VALID,135,VALID,0,
2014-06-06, 03:28:04,VALID,1006.22,VALID,0,VALID,104,VALID,0,VALID,23.5966,VALID,135,VALID,0,
2014-06-06, 03:29:04,VALID,1006.23,VALID,0,VALID,104,VALID,0,VALID,23.5966,VALID,135,VALID,0,
2014-06-06, 03:30:04,VALID,1006.21,VALID,0,VALID,104,VALID,0,VALID,23.5966,VALID,135,VALID,0,
2014-06-06, 03:31:04,VALID,1006.24,VALID,0,VALID,104,VALID,0,VALID,23.5966,VALID,135,VALID,0,
2014-06-06, 03:32:04,VALID,1006.2,VALID,0,VALID,104,VALID,0,VALID,23.6161,VALID,135,VALID,0,
2014-06-06, 03:33:04,VALID,1006.2,VALID,0,VALID,104,VALID,0,VALID,23.6161,VALID,135,VALID,0,
2014-06-06, 03:34:04,VALID,1006.19,VALID,0,VALID,104,VALID,0,VALID,23.6161,VALID,135,VALID,0,
2014-06-06, 03:35:04,VALID,1006.2,VALID,0,VALID,104,VALID,0,VALID,23.5966,VALID,135,VALID,0,
2014-06-06, 03:36:04,VALID,1006.18,VALID,0,VALID,104,VALID,0,VALID,23.6161,VALID,135,VALID,0,
2014-06-06, 03:37:04,VALID,1006.2,VALID,0,VALID,104,VALID,0,VALID,23.6356,VALID,135,VALID,0,
2014-06-06, 03:38:04,VALID,1006.21,VALID,0,VALID,104,VALID,0,VALID,23.655,VALID,135,VALID,0,
2014-06-06, 03:39:04,VALID,1006.19,VALID,0,VALID,104,VALID,0,VALID,23.6745,VALID,135,VALID,0,
2014-06-06, 03:40:04,VALID,1006.19,VALID,0,VALID,104,VALID,0,VALID,23.694,VALID,135,VALID,0,
2014-06-06, 03:41:04,VALID,1006.18,VALID,0,VALID,104,VALID,0.112112,VALID,23.7135,VALID,135,VALID,0,
2014-06-06, 03:42:04,VALID,1006.19,VALID,0,VALID,104,VALID,0.112112,VALID,23.733,VALID,135,VALID,0,
2014-06-06, 03:43:04,VALID,1006.17,VALID,0,VALID,104,VALID,0,VALID,23.7525,VALID,135,VALID,0,
2014-06-06, 03:44:04,VALID,1006.17,VALID,0,VALID,104,VALID,0,VALID,23.7525,VALID,135,VALID,0,
2014-06-06, 03:45:04,VALID,1006.17,VALID,0,VALID,104,VALID,0,VALID,23.7525,VALID,135,VALID,0,
2014-06-06, 03:46:04,VALID,1006.17,VALID,0,VALID,104,VALID,0,VALID,23.733,VALID,135,VALID,0,
2014-06-06, 03:47:04,VALID,1006.17,VALID,0,VALID,104,VALID,0.112112,VALID,23.7135,VALID,135,VALID,0,
2014-06-06, 03:48:04,VALID,1006.23,VALID,0,VALID,104,VALID,0.112112,VALID,23.733,VALID,135,VALID,0,
2014-06-06, 03:49:04,VALID,1006.25,VALID,0,VALID,104,VALID,0.112112,VALID,23.733,VALID,135,VALID,0,
2014-06-06, 03:50:04,VALID,1006.28,VALID,0,VALID,104,VALID,0,VALID,23.7135,VALID,135,VALID,0,
2014-06-06, 03:51:04,VALID,1006.33,VALID,0,VALID,104,VALID,0,VALID,23.7135,VALID,135,VALID,0,
2014-06-06, 03:52:04,VALID,1006.34,VALID,0,VALID,104,VALID,0.112112,VALID,23.6745,VALID,135,VALID,0,
2014-06-06, 03:53:04,VALID,1006.37,VALID,0,VALID,104,VALID,0.112112,VALID,23.655,VALID,135,VALID,0,
2014-06-06, 03:54:04,VALID,1006.38,VALID,0,VALID,104,VALID,0,VALID,23.655,VALID,135,VALID,0,
2014-06-06, 03:55:04,VALID,1006.41,VALID,0,VALID,104,VALID,0.112112,VALID,23.655,VALID,135,VALID,0,
2014-06-06, 03:56:04,VALID,1006.43,VALID,0,VALID,104,VALID,0,VALID,23.655,VALID,135,VALID,0,
2014-06-06, 03:57:04,VALID,1006.44,VALID,0,VALID,104,VALID,0,VALID,23.655,VALID,135,VALID,0,
2014-06-06, 03:58:04,VALID,1006.43,VALID,0,VALID,104,VALID,0,VALID,23.655,VALID,135,VALID,0,
2014-06-06, 03:59:04,VALID,1006.46,VALID,0,VALID,104,VALID,0,VALID,23.655,VALID,135,VALID,0,
2014-06-06, 04:00:04,VALID,1006.47,VALID,0,VALID,104,VALID,0.112112,VALID,23.655,VALID,135,VALID,0,
2014-06-06, 04:01:04,VALID,1006.52,VALID,0,VALID,104,VALID,0.112112,VALID,23.655,VALID,135,VALID,0,
2014-06-06, 04:02:04,VALID,1006.54,VALID,0,VALID,104,VALID,0.112112,VALID,23.655,VALID,135,VALID,0,
2014-06-06, 04:03:04,VALID,1006.55,VALID,0,VALID,104,VALID,0.112112,VALID,23.6356,VALID,135,VALID,0,
2014-06-06, 04:04:04,VALID,1006.59,VALID,0,VALID,104,VALID,0,VALID,23.6161,VALID,135,VALID,0,
2014-06-06, 04:05:04,VALID,1006.61,VALID,0,VALID,104,VALID,0.112112,VALID,23.5966,VALID,135,VALID,0,
2014-06-06, 04:06:04,VALID,1006.65,VALID,0,VALID,104,VALID,0,VALID,23.5966,VALID,135,VALID,0,
2014-06-06, 04:07:04,VALID,1006.66,VALID,0,VALID,104,VALID,0,VALID,23.5966,VALID,135,VALID,0,
2014-06-06, 04:08:04,VALID,1006.66,VALID,0,VALID,104,VALID,0,VALID,23.5771,VALID,135,VALID,0,